| time (UTC) | temp F | wind direction | speed knots | gust knots | rain 1hr in | rain 24hr in | rain mn in | humidity % | barometer mb |
| 20260508220549 | 52 | 248 | 1.7 | 3.5 | 0.00 | 0.00 | 0.00 | 42 | 1011.3 |
| 20260508220039 | 53 | 315 | 0.9 | 3.5 | 0.00 | 0.00 | 0.00 | 43 | 1011.4 |
| 20260508215529 | 53 | 0 | 1.7 | 3.5 | 0.00 | 0.00 | 0.00 | 42 | 1011.2 |
| 20260508215020 | 53 | 248 | 1.7 | 3.5 | 0.00 | 0.00 | 0.00 | 41 | 1011.2 |
| 20260508214510 | 55 | 315 | 1.7 | 3.5 | 0.00 | 0.00 | 0.00 | 39 | 1011.4 |
| 20260508213959 | 55 | 315 | 1.7 | 3.5 | 0.00 | 0.00 | 0.00 | 37 | 1011.5 |
| 20260508213450 | 56 | 270 | 1.7 | 6.1 | 0.00 | 0.00 | 0.00 | 35 | 1011.4 |
| 20260508212938 | 56 | 248 | 1.7 | 6.1 | 0.00 | 0.00 | 0.00 | 35 | 1011.3 |
| 20260508211919 | 56 | 248 | 1.7 | 7.0 | 0.00 | 0.00 | 0.00 | 34 | 1011.5 |
| 20260508211408 | 57 | 225 | 3.5 | 7.8 | 0.00 | 0.00 | 0.00 | 33 | 1011.5 |
| 20260508210858 | 58 | 225 | 3.5 | 9.6 | 0.00 | 0.00 | 0.00 | 32 | 1011.4 |
| 20260508205837 | 58 | 225 | 3.5 | 11.3 | 0.00 | 0.00 | 0.00 | 30 | 1011.6 |
| 20260508204817 | 59 | 248 | 3.5 | 13.0 | 0.00 | 0.00 | 0.00 | 28 | 1011.3 |
| 20260508204307 | 59 | 225 | 3.5 | 13.0 | 0.00 | 0.00 | 0.00 | 28 | 1011.5 |
| 20260508203757 | 59 | 248 | 8.7 | 12.2 | 0.00 | 0.00 | 0.00 | 27 | 1011.2 |
| 20260508203247 | 60 | 225 | 5.2 | 13.0 | 0.00 | 0.00 | 0.00 | 27 | 1011.3 |
| 20260508202737 | 60 | 180 | 5.2 | 13.0 | 0.00 | 0.00 | 0.00 | 27 | 1011.2 |
| 20260508202229 | 60 | 90 | 6.1 | 13.0 | 0.00 | 0.00 | 0.00 | 26 | 1011.2 |
| 20260508200658 | 60 | 270 | 7.0 | 14.8 | 0.00 | 0.00 | 0.00 | 25 | 1011.2 |
| 20260508200148 | 61 | 225 | 7.8 | 13.9 | 0.00 | 0.00 | 0.00 | 26 | 1011.2 |
| 20260508195638 | 62 | 203 | 7.8 | 12.2 | 0.00 | 0.00 | 0.00 | 26 | 1011.0 |
| 20260508195126 | 62 | 225 | 7.0 | 14.8 | 0.00 | 0.00 | 0.00 | 25 | 1010.8 |
| 20260508194108 | 61 | 248 | 7.8 | 12.2 | 0.00 | 0.00 | 0.00 | 25 | 1010.7 |
| 20260508193557 | 61 | 270 | 3.5 | 13.9 | 0.00 | 0.00 | 0.00 | 25 | 1010.8 |
| 20260508193050 | 61 | 225 | 6.1 | 13.9 | 0.00 | 0.00 | 0.00 | 24 | 1010.7 |
| 20260508192535 | 61 | 225 | 7.8 | 13.9 | 0.00 | 0.00 | 0.00 | 24 | 1010.8 |
| 20260508192026 | 61 | 248 | 4.3 | 14.8 | 0.00 | 0.00 | 0.00 | 24 | 1010.8 |
| 20260508191520 | 61 | 203 | 6.1 | 14.8 | 0.00 | 0.00 | 0.00 | 23 | 1010.8 |
| 20260508191006 | 61 | 158 | 9.6 | 14.8 | 0.00 | 0.00 | 0.00 | 22 | 1011.0 |
| 20260508190455 | 61 | 68 | 7.8 | 18.2 | 0.00 | 0.00 | 0.00 | 23 | 1010.9 |
| 20260508185946 | 61 | 248 | 10.4 | 19.1 | 0.00 | 0.00 | 0.00 | 22 | 1011.0 |
| 20260508185437 | 61 | 270 | 9.6 | 20.0 | 0.00 | 0.00 | 0.00 | 22 | 1011.1 |
| 20260508184414 | 61 | 248 | 10.4 | 21.7 | 0.00 | 0.00 | 0.00 | 19 | 1011.2 |
| 20260508183905 | 61 | 225 | 10.4 | 21.7 | 0.00 | 0.00 | 0.00 | 18 | 1011.4 |
| 20260508183356 | 61 | 225 | 9.6 | 20.9 | 0.00 | 0.00 | 0.00 | 18 | 1011.3 |
| 20260508182846 | 61 | 248 | 9.6 | 20.9 | 0.00 | 0.00 | 0.00 | 19 | 1011.3 |
| 20260508182334 | 61 | 248 | 10.4 | 19.1 | 0.00 | 0.00 | 0.00 | 20 | 1011.4 |
| 20260508181824 | 61 | 225 | 10.4 | 20.0 | 0.00 | 0.00 | 0.00 | 19 | 1011.4 |
| 20260508181314 | 61 | 248 | 11.3 | 20.0 | 0.00 | 0.00 | 0.00 | 20 | 1011.3 |
| 20260508180804 | 60 | 225 | 7.8 | 25.2 | 0.00 | 0.00 | 0.00 | 20 | 1011.3 |
| 20260508180256 | 61 | 203 | 13.0 | 25.2 | 0.00 | 0.00 | 0.00 | 21 | 1011.3 |
| 20260508175744 | 61 | 225 | 8.7 | 20.9 | 0.00 | 0.00 | 0.00 | 22 | 1011.5 |
| 20260508174724 | 61 | 248 | 7.8 | 15.6 | 0.00 | 0.00 | 0.00 | 25 | 1011.7 |
| 20260508174215 | 60 | 203 | 7.0 | 20.9 | 0.00 | 0.00 | 0.00 | 26 | 1011.6 |
| 20260508173704 | 60 | 203 | 9.6 | 20.9 | 0.00 | 0.00 | 0.00 | 26 | 1011.5 |
| 20260508173154 | 60 | 248 | 7.8 | 19.1 | 0.00 | 0.00 | 0.00 | 25 | 1011.6 |
| 20260508172644 | 60 | 225 | 9.6 | 15.6 | 0.00 | 0.00 | 0.00 | 27 | 1011.9 |
| 20260508172133 | 60 | 270 | 7.0 | 15.6 | 0.00 | 0.00 | 0.00 | 29 | 1011.9 |
| 20260508171625 | 59 | 203 | 9.6 | 18.2 | 0.00 | 0.00 | 0.00 | 28 | 1011.8 |
| 20260508171113 | 59 | 203 | 9.6 | 18.2 | 0.00 | 0.00 | 0.00 | 29 | 1012.0 |
| 20260508170604 | 60 | 203 | 6.1 | 18.2 | 0.00 | 0.00 | 0.00 | 30 | 1012.1 |
| 20260508170106 | 59 | 180 | 10.4 | 20.0 | 0.00 | 0.00 | 0.00 | 30 | 1012.1 |
| 20260508165544 | 59 | 225 | 12.2 | 20.0 | 0.00 | 0.00 | 0.00 | 30 | 1012.0 |
| 20260508165032 | 59 | 203 | 5.2 | 19.1 | 0.00 | 0.00 | 0.00 | 32 | 1012.2 |
| 20260508164013 | 58 | 180 | 5.2 | 17.4 | 0.00 | 0.00 | 0.00 | 33 | 1012.3 |
| 20260508163502 | 58 | 225 | 7.8 | 17.4 | 0.00 | 0.00 | 0.00 | 33 | 1012.5 |
| 20260508162952 | 58 | 270 | 6.1 | 20.0 | 0.00 | 0.00 | 0.00 | 34 | 1012.6 |
| 20260508162442 | 57 | 203 | 8.7 | 20.0 | 0.00 | 0.00 | 0.00 | 34 | 1012.7 |
| 20260508161933 | 57 | 203 | 7.8 | 15.6 | 0.00 | 0.00 | 0.00 | 35 | 1012.8 |
| 20260508161422 | 57 | 338 | 4.3 | 15.6 | 0.00 | 0.00 | 0.00 | 36 | 1012.8 |
| 20260508160911 | 57 | 248 | 8.7 | 15.6 | 0.00 | 0.00 | 0.00 | 36 | 1013.3 |
| 20260508160401 | 56 | 270 | 7.8 | 15.6 | 0.00 | 0.00 | 0.00 | 36 | 1013.2 |
| 20260508155853 | 56 | 203 | 4.3 | 15.6 | 0.00 | 0.00 | 0.00 | 37 | 1013.2 |
| 20260508154321 | 56 | 180 | 7.8 | 15.6 | 0.00 | 0.00 | 0.00 | 39 | 1013.3 |
| 20260508153812 | 56 | 293 | 7.0 | 17.4 | 0.00 | 0.00 | 0.00 | 39 | 1013.5 |
| 20260508152750 | 55 | 248 | 6.1 | 17.4 | 0.00 | 0.00 | 0.00 | 39 | 1013.5 |
| 20260508152242 | 55 | 203 | 6.1 | 14.8 | 0.00 | 0.00 | 0.00 | 40 | 1013.6 |
| 20260508151730 | 55 | 225 | 7.0 | 18.2 | 0.00 | 0.00 | 0.00 | 41 | 1013.7 |
| 20260508151219 | 55 | 248 | 7.0 | 18.2 | 0.00 | 0.00 | 0.00 | 41 | 1013.7 |
| 20260508150710 | 54 | 203 | 9.6 | 15.6 | 0.00 | 0.00 | 0.00 | 42 | 1013.9 |
| 20260508150200 | 54 | 203 | 9.6 | 15.6 | 0.00 | 0.00 | 0.00 | 42 | 1014.0 |
| 20260508145650 | 54 | 225 | 7.0 | 15.6 | 0.00 | 0.00 | 0.00 | 43 | 1014.0 |
| 20260508145141 | 54 | 203 | 7.0 | 17.4 | 0.00 | 0.00 | 0.00 | 43 | 1014.1 |
| 20260508144629 | 53 | 203 | 8.7 | 18.2 | 0.00 | 0.00 | 0.00 | 43 | 1013.9 |
| 20260508144119 | 53 | 225 | 9.6 | 18.2 | 0.00 | 0.00 | 0.00 | 44 | 1014.1 |
| 20260508143610 | 53 | 248 | 7.0 | 20.0 | 0.00 | 0.00 | 0.00 | 44 | 1014.1 |
| 20260508143101 | 53 | 203 | 13.0 | 20.0 | 0.00 | 0.00 | 0.00 | 44 | 1014.0 |
| 20260508142551 | 52 | 203 | 10.4 | 19.1 | 0.00 | 0.00 | 0.00 | 45 | 1014.1 |
| 20260508142040 | 53 | 248 | 12.2 | 18.2 | 0.00 | 0.00 | 0.00 | 45 | 1014.1 |
| 20260508141529 | 52 | 90 | 12.2 | 20.0 | 0.00 | 0.00 | 0.00 | 45 | 1014.0 |
| 20260508141020 | 52 | 338 | 9.6 | 20.0 | 0.00 | 0.00 | 0.00 | 45 | 1014.1 |
| 20260508140508 | 53 | 270 | 7.0 | 18.2 | 0.00 | 0.00 | 0.00 | 45 | 1014.2 |
| 20260508135450 | 52 | 248 | 10.4 | 19.1 | 0.00 | 0.00 | 0.00 | 46 | 1014.1 |
| 20260508134938 | 52 | 225 | 8.7 | 19.1 | 0.00 | 0.00 | 0.00 | 46 | 1013.9 |
| 20260508134430 | 52 | 248 | 9.6 | 17.4 | 0.00 | 0.00 | 0.00 | 45 | 1013.8 |
| 20260508133411 | 51 | 248 | 9.6 | 20.0 | 0.00 | 0.00 | 0.00 | 45 | 1013.9 |
| 20260508132858 | 51 | 225 | 7.8 | 20.9 | 0.00 | 0.00 | 0.00 | 45 | 1013.9 |
| 20260508132349 | 51 | 248 | 8.7 | 20.9 | 0.00 | 0.00 | 0.00 | 45 | 1013.9 |
| 20260508131838 | 51 | 270 | 8.7 | 20.9 | 0.00 | 0.00 | 0.00 | 45 | 1014.1 |
| 20260508131328 | 50 | 203 | 10.4 | 20.9 | 0.00 | 0.00 | 0.00 | 45 | 1014.0 |
| 20260508130307 | 50 | 225 | 6.1 | 23.5 | 0.00 | 0.00 | 0.00 | 45 | 1013.7 |
| 20260508125759 | 50 | 248 | 5.2 | 23.5 | 0.00 | 0.00 | 0.00 | 45 | 1013.9 |
| 20260508125246 | 50 | 203 | 13.0 | 23.5 | 0.00 | 0.00 | 0.00 | 45 | 1014.1 |
| 20260508124736 | 50 | 225 | 8.7 | 20.0 | 0.00 | 0.00 | 0.00 | 46 | 1013.7 |
| 20260508124227 | 50 | 203 | 7.0 | 20.0 | 0.00 | 0.00 | 0.00 | 46 | 1014.0 |
| 20260508123718 | 49 | 225 | 12.2 | 20.0 | 0.00 | 0.00 | 0.00 | 46 | 1013.8 |
| 20260508123206 | 49 | 180 | 8.7 | 19.1 | 0.00 | 0.00 | 0.00 | 47 | 1013.8 |
| 20260508122658 | 49 | 225 | 7.0 | 19.1 | 0.00 | 0.00 | 0.00 | 47 | 1013.9 |
| 20260508122147 | 49 | 293 | 7.8 | 15.6 | 0.00 | 0.00 | 0.00 | 49 | 1013.8 |
| 20260508121636 | 48 | 225 | 11.3 | 15.6 | 0.00 | 0.00 | 0.00 | 50 | 1013.8 |
| 20260508121126 | 48 | 225 | 7.8 | 15.6 | 0.00 | 0.00 | 0.00 | 51 | 1013.7 |
| 20260508120616 | 47 | 203 | 7.0 | 14.8 | 0.00 | 0.00 | 0.00 | 52 | 1013.7 |
| 20260508120119 | 47 | 225 | 7.0 | 14.8 | 0.00 | 0.00 | 0.00 | 53 | 1013.8 |
| 20260508115046 | 46 | 338 | 6.1 | 12.2 | 0.00 | 0.00 | 0.00 | 56 | 1013.6 |
| 20260508114535 | 46 | 180 | 3.5 | 11.3 | 0.00 | 0.00 | 0.00 | 57 | 1013.7 |
| 20260508114026 | 46 | 225 | 3.5 | 12.2 | 0.00 | 0.00 | 0.00 | 56 | 1013.7 |
| 20260508113517 | 45 | 225 | 3.5 | 12.2 | 0.00 | 0.00 | 0.00 | 56 | 1013.4 |
| 20260508113006 | 45 | 248 | 4.3 | 11.3 | 0.00 | 0.00 | 0.00 | 57 | 1013.4 |
| 20260508112457 | 45 | 0 | 5.2 | 11.3 | 0.00 | 0.00 | 0.00 | 57 | 1013.6 |
| 20260508111945 | 45 | 293 | 3.5 | 12.2 | 0.00 | 0.00 | 0.00 | 58 | 1013.4 |
| 20260508111435 | 44 | 225 | 7.0 | 12.2 | 0.00 | 0.00 | 0.00 | 58 | 1013.4 |
| 20260508110927 | 44 | 248 | 5.2 | 12.2 | 0.00 | 0.00 | 0.00 | 59 | 1013.2 |
| 20260508110414 | 44 | 338 | 7.0 | 12.2 | 0.00 | 0.00 | 0.00 | 59 | 1013.1 |
| 20260508105354 | 43 | 203 | 4.3 | 9.6 | 0.00 | 0.00 | 0.00 | 61 | 1013.1 |
| 20260508104844 | 44 | 225 | 1.7 | 9.6 | 0.00 | 0.00 | 0.00 | 62 | 1012.9 |
| 20260508104335 | 44 | 158 | 3.5 | 11.3 | 0.00 | 0.00 | 0.00 | 61 | 1012.8 |
| 20260508103824 | 44 | 225 | 4.3 | 13.0 | 0.00 | 0.00 | 0.00 | 59 | 1012.7 |
| 20260508103315 | 45 | 225 | 7.0 | 13.0 | 0.00 | 0.00 | 0.00 | 58 | 1012.8 |
| 20260508102804 | 45 | 293 | 8.7 | 13.0 | 0.00 | 0.00 | 0.00 | 57 | 1012.6 |
| 20260508101744 | 45 | 270 | 7.0 | 17.4 | 0.00 | 0.00 | 0.00 | 57 | 1012.1 |
| 20260508101235 | 45 | 225 | 8.7 | 17.4 | 0.00 | 0.00 | 0.00 | 57 | 1012.1 |
| 20260508100724 | 45 | 315 | 7.0 | 13.0 | 0.00 | 0.00 | 0.00 | 58 | 1012.2 |
| 20260508095705 | 45 | 180 | 8.7 | 15.6 | 0.00 | 0.00 | 0.00 | 57 | 1011.8 |
| 20260508095153 | 45 | 225 | 6.1 | 13.9 | 0.00 | 0.00 | 0.00 | 58 | 1011.8 |
| 20260508094644 | 45 | 180 | 7.0 | 15.6 | 0.00 | 0.00 | 0.00 | 58 | 1011.8 |
| 20260508094133 | 45 | 225 | 7.8 | 15.6 | 0.00 | 0.00 | 0.00 | 58 | 1011.5 |
| 20260508093623 | 45 | 203 | 6.1 | 13.9 | 0.00 | 0.00 | 0.00 | 59 | 1011.5 |
| 20260508093114 | 45 | 248 | 7.0 | 13.9 | 0.00 | 0.00 | 0.00 | 60 | 1011.5 |
| 20260508092603 | 44 | 225 | 6.1 | 11.3 | 0.00 | 0.00 | 0.00 | 62 | 1011.7 |
| 20260508092052 | 44 | 270 | 3.5 | 11.3 | 0.00 | 0.00 | 0.00 | 64 | 1011.7 |
| 20260508091542 | 44 | 270 | 4.3 | 11.3 | 0.00 | 0.00 | 0.00 | 63 | 1011.7 |
| 20260508090522 | 45 | 68 | 6.1 | 13.9 | 0.00 | 0.00 | 0.00 | 61 | 1011.6 |
| 20260508090012 | 45 | 225 | 7.8 | 13.9 | 0.00 | 0.00 | 0.00 | 60 | 1011.6 |
| 20260508085503 | 45 | 293 | 7.8 | 12.2 | 0.00 | 0.00 | 0.00 | 61 | 1011.7 |
| 20260508084954 | 45 | 225 | 4.3 | 13.0 | 0.00 | 0.00 | 0.00 | 62 | 1011.7 |
| 20260508084441 | 45 | 293 | 7.0 | 13.0 | 0.00 | 0.00 | 0.00 | 62 | 1011.8 |
| 20260508083932 | 46 | 248 | 7.0 | 12.2 | 0.00 | 0.00 | 0.00 | 61 | 1011.6 |
| 20260508083423 | 46 | 225 | 5.2 | 13.0 | 0.00 | 0.00 | 0.00 | 59 | 1011.4 |
| 20260508082911 | 46 | 225 | 6.1 | 14.8 | 0.00 | 0.00 | 0.00 | 58 | 1011.3 |
| 20260508082402 | 47 | 270 | 8.7 | 15.6 | 0.00 | 0.00 | 0.00 | 56 | 1011.4 |
| 20260508081852 | 47 | 158 | 7.8 | 17.4 | 0.00 | 0.00 | 0.00 | 55 | 1011.3 |
| 20260508081343 | 47 | 225 | 7.0 | 17.4 | 0.00 | 0.00 | 0.00 | 55 | 1011.1 |
| 20260508080831 | 47 | 203 | 9.6 | 17.4 | 0.00 | 0.00 | 0.00 | 54 | 1011.2 |
| 20260508080328 | 47 | 248 | 7.8 | 18.2 | 0.00 | 0.00 | 0.00 | 55 | 1011.2 |
| 20260508075810 | 47 | 248 | 7.0 | 18.2 | 0.00 | 0.00 | 0.00 | 56 | 1011.3 |
| 20260508075307 | 48 | 315 | 8.7 | 14.8 | 0.00 | 0.00 | 0.00 | 53 | 1011.1 |
| 20260508074751 | 47 | 225 | 7.0 | 13.0 | 0.00 | 0.00 | 0.00 | 55 | 1011.3 |
| 20260508074240 | 46 | 135 | 6.1 | 13.0 | 0.00 | 0.00 | 0.00 | 59 | 1011.5 |
| 20260508073731 | 46 | 270 | 7.0 | 13.0 | 0.00 | 0.00 | 0.00 | 60 | 1011.4 |
| 20260508073222 | 46 | 0 | 6.1 | 12.2 | 0.00 | 0.00 | 0.00 | 60 | 1011.4 |
| 20260508072709 | 46 | 248 | 5.2 | 12.2 | 0.00 | 0.00 | 0.00 | 60 | 1011.2 |
| 20260508072201 | 46 | 225 | 7.0 | 12.2 | 0.00 | 0.00 | 0.00 | 61 | 1011.5 |
| 20260508071650 | 45 | 248 | 6.1 | 11.3 | 0.00 | 0.00 | 0.00 | 62 | 1011.4 |
| 20260508071141 | 45 | 225 | 5.2 | 12.2 | 0.00 | 0.00 | 0.00 | 62 | 1011.5 |
| 20260508070629 | 45 | 225 | 6.1 | 12.2 | 0.00 | 0.00 | 0.00 | 62 | 1011.5 |
| 20260508070119 | 45 | 248 | 7.0 | 9.6 | 0.00 | 0.00 | 0.00 | 63 | 1011.5 |
| 20260508065610 | 45 | 225 | 3.5 | 9.6 | 0.00 | 0.00 | 0.00 | 63 | 1011.6 |
| 20260508065056 | 45 | 225 | 7.0 | 0.0 | 0.00 | 0.00 | 0.00 | 63 | 1011.9 |
| 20260508063521 | 46 | 248 | 4.3 | 11.3 | 0.00 | 0.08 | 0.00 | 62 | 1012.0 |
| 20260508063010 | 46 | 270 | 4.3 | 11.3 | 0.00 | 0.08 | 0.00 | 62 | 1012.0 |
| 20260508062501 | 46 | 203 | 5.2 | 11.3 | 0.00 | 0.08 | 0.00 | 61 | 1012.0 |
| 20260508061950 | 46 | 248 | 4.3 | 12.2 | 0.00 | 0.08 | 0.00 | 61 | 1012.0 |
| 20260508061441 | 47 | 270 | 4.3 | 13.0 | 0.00 | 0.08 | 0.00 | 61 | 1012.1 |
| 20260508060931 | 47 | 225 | 6.1 | 13.0 | 0.00 | 0.08 | 0.00 | 60 | 1012.1 |
| 20260508060420 | 47 | 225 | 5.2 | 12.2 | 0.00 | 0.08 | 0.00 | 59 | 1012.1 |
| 20260508055910 | 47 | 248 | 4.3 | 12.2 | 0.00 | 0.08 | 0.00 | 60 | 1012.2 |
| 20260508055401 | 47 | 248 | 7.0 | 12.2 | 0.00 | 0.08 | 0.00 | 60 | 1012.2 |
| 20260508054851 | 47 | 225 | 6.1 | 12.2 | 0.00 | 0.08 | 0.00 | 60 | 1012.2 |
| 20260508053829 | 47 | 270 | 7.0 | 13.9 | 0.00 | 0.08 | 0.00 | 59 | 1011.9 |
| 20260508053321 | 47 | 248 | 5.2 | 13.9 | 0.00 | 0.08 | 0.00 | 58 | 1012.0 |
| 20260508052809 | 48 | 248 | 6.1 | 11.3 | 0.00 | 0.08 | 0.00 | 58 | 1012.0 |
| 20260508052258 | 48 | 203 | 6.1 | 13.0 | 0.00 | 0.08 | 0.00 | 57 | 1012.0 |
| 20260508051750 | 48 | 203 | 7.0 | 14.8 | 0.00 | 0.08 | 0.00 | 57 | 1011.9 |
| 20260508051239 | 49 | 315 | 7.0 | 14.8 | 0.00 | 0.08 | 0.00 | 56 | 1012.1 |
| 20260508050730 | 48 | 225 | 6.1 | 13.9 | 0.00 | 0.08 | 0.00 | 56 | 1011.8 |
| 20260508050219 | 48 | 248 | 7.0 | 13.9 | 0.00 | 0.08 | 0.00 | 56 | 1011.8 |
| 20260508045157 | 49 | 225 | 10.4 | 18.2 | 0.00 | 0.08 | 0.00 | 56 | 1011.6 |
| 20260508044648 | 48 | 248 | 7.0 | 13.0 | 0.00 | 0.08 | 0.00 | 57 | 1011.5 |
| 20260508044139 | 48 | 203 | 7.0 | 13.0 | 0.00 | 0.08 | 0.00 | 59 | 1011.4 |
| 20260508043628 | 48 | 23 | 3.5 | 12.2 | 0.00 | 0.08 | 0.00 | 58 | 1011.6 |
| 20260508043117 | 48 | 248 | 7.0 | 12.2 | 0.00 | 0.08 | 0.00 | 57 | 1011.4 |
| 20260508042608 | 48 | 203 | 4.3 | 13.0 | 0.00 | 0.08 | 0.00 | 58 | 1011.2 |
| 20260508041547 | 49 | 248 | 6.1 | 11.3 | 0.00 | 0.08 | 0.00 | 57 | 1011.4 |
| 20260508041037 | 48 | 248 | 6.1 | 11.3 | 0.00 | 0.08 | 0.00 | 59 | 1011.2 |
| 20260508040528 | 47 | 225 | 5.2 | 9.6 | 0.00 | 0.08 | 0.00 | 61 | 1011.3 |
| 20260508035507 | 47 | 225 | 3.5 | 11.3 | 0.00 | 0.08 | 0.00 | 63 | 1011.2 |
| 20260508034958 | 47 | 225 | 3.5 | 9.6 | 0.00 | 0.08 | 0.00 | 65 | 1011.1 |
| 20260508034448 | 47 | 225 | 3.5 | 9.6 | 0.00 | 0.08 | 0.00 | 65 | 1011.2 |
| 20260508033936 | 47 | 225 | 4.3 | 9.6 | 0.00 | 0.08 | 0.00 | 64 | 1011.0 |
| 20260508033428 | 47 | 203 | 2.6 | 9.6 | 0.00 | 0.08 | 0.00 | 65 | 1011.0 |
| 20260508032916 | 47 | 158 | 3.5 | 7.8 | 0.00 | 0.08 | 0.00 | 63 | 1010.7 |
| 20260508032406 | 47 | 270 | 3.5 | 9.6 | 0.00 | 0.08 | 0.00 | 64 | 1010.6 |
| 20260508031856 | 47 | 225 | 4.3 | 9.6 | 0.00 | 0.08 | 0.00 | 64 | 1010.8 |
| 20260508031347 | 48 | 225 | 3.5 | 9.6 | 0.00 | 0.08 | 0.00 | 65 | 1011.0 |
| 20260508030328 | 48 | 225 | 3.5 | 13.9 | 0.00 | 0.08 | 0.00 | 65 | 1011.2 |
| 20260508025817 | 48 | 293 | 2.6 | 13.9 | 0.00 | 0.08 | 0.11 | 64 | 1011.1 |
| 20260508025306 | 48 | 248 | 2.6 | 7.8 | 0.00 | 0.08 | 0.11 | 65 | 1011.1 |
| 20260508024755 | 48 | 248 | 1.7 | 9.6 | 0.00 | 0.08 | 0.11 | 66 | 1011.0 |
| 20260508024246 | 48 | 203 | 2.6 | 9.6 | 0.00 | 0.08 | 0.11 | 65 | 1010.8 |
| 20260508023736 | 48 | 315 | 4.3 | 9.6 | 0.00 | 0.08 | 0.11 | 65 | 1010.9 |
| 20260508023226 | 48 | 270 | 4.3 | 11.3 | 0.00 | 0.08 | 0.11 | 65 | 1010.7 |
| 20260508022715 | 48 | 248 | 3.5 | 11.3 | 0.00 | 0.08 | 0.11 | 65 | 1011.0 |
| 20260508022205 | 48 | 270 | 4.3 | 9.6 | 0.00 | 0.08 | 0.11 | 66 | 1010.9 |
| 20260508021655 | 47 | 293 | 2.6 | 7.8 | 0.00 | 0.08 | 0.11 | 67 | 1011.0 |
| 20260508021147 | 47 | 203 | 2.6 | 7.8 | 0.00 | 0.08 | 0.11 | 68 | 1010.9 |
| 20260508020637 | 47 | 270 | 1.7 | 5.2 | 0.00 | 0.08 | 0.11 | 68 | 1010.6 |
| 20260508020125 | 48 | 270 | 1.7 | 5.2 | 0.00 | 0.08 | 0.11 | 67 | 1010.9 |
| 20260508015615 | 49 | 293 | 2.6 | 6.1 | 0.00 | 0.08 | 0.11 | 65 | 1010.6 |
| 20260508015104 | 49 | 270 | 1.7 | 6.1 | 0.00 | 0.08 | 0.11 | 65 | 1010.7 |
| 20260508014554 | 49 | 315 | 1.7 | 6.1 | 0.00 | 0.08 | 0.11 | 64 | 1010.6 |
| 20260508014044 | 49 | 270 | 1.7 | 7.8 | 0.00 | 0.08 | 0.11 | 63 | 1010.6 |
| 20260508013536 | 50 | 248 | 2.6 | 7.8 | 0.00 | 0.08 | 0.11 | 63 | 1010.6 |
| 20260508013023 | 49 | 225 | 2.6 | 9.6 | 0.00 | 0.08 | 0.11 | 63 | 1010.6 |
| 20260508012513 | 49 | 293 | 2.6 | 9.6 | 0.00 | 0.08 | 0.11 | 63 | 1010.7 |
| 20260508012005 | 49 | 248 | 2.6 | 7.8 | 0.00 | 0.08 | 0.11 | 64 | 1010.6 |
| 20260508011455 | 49 | 293 | 3.5 | 7.8 | 0.00 | 0.08 | 0.11 | 64 | 1010.7 |
| 20260508010956 | 49 | 270 | 3.5 | 7.8 | 0.00 | 0.08 | 0.11 | 65 | 1010.8 |
| 20260508010434 | 49 | 203 | 3.5 | 7.0 | 0.00 | 0.08 | 0.11 | 65 | 1010.7 |
| 20260508005924 | 49 | 293 | 1.7 | 7.0 | 0.00 | 0.08 | 0.11 | 66 | 1010.7 |
| 20260508005413 | 49 | 68 | 3.5 | 7.0 | 0.00 | 0.08 | 0.11 | 66 | 1010.9 |
| 20260508004904 | 49 | 248 | 2.6 | 6.1 | 0.00 | 0.08 | 0.11 | 66 | 1010.8 |
| 20260508004353 | 49 | 113 | 1.7 | 6.1 | 0.00 | 0.08 | 0.11 | 66 | 1010.7 |
| 20260508003844 | 49 | 338 | 2.6 | 7.0 | 0.00 | 0.08 | 0.11 | 66 | 1010.5 |
| 20260508003333 | 50 | 225 | 1.7 | 7.0 | 0.00 | 0.08 | 0.11 | 66 | 1010.6 |
| 20260508002824 | 50 | 203 | 3.5 | 9.6 | 0.00 | 0.08 | 0.11 | 65 | 1010.5 |
| 20260508002312 | 50 | 225 | 3.5 | 9.6 | 0.00 | 0.08 | 0.11 | 65 | 1010.5 |
| 20260508001802 | 50 | 248 | 3.5 | 9.6 | 0.00 | 0.08 | 0.11 | 64 | 1010.3 |
| 20260508001252 | 51 | 293 | 3.5 | 7.8 | 0.00 | 0.08 | 0.11 | 63 | 1010.2 |
| 20260508000742 | 51 | 248 | 3.5 | 9.6 | 0.00 | 0.08 | 0.11 | 61 | 1010.1 |
| 20260508000235 | 52 | 225 | 3.5 | 9.6 | 0.00 | 0.08 | 0.11 | 61 | 1010.2 |
| 20260507235722 | 52 | 293 | 3.5 | 9.6 | 0.00 | 0.08 | 0.11 | 60 | 1010.3 |
| 20260507235211 | 51 | 225 | 3.5 | 7.8 | 0.00 | 0.08 | 0.11 | 61 | 1010.3 |
| 20260507234701 | 52 | 225 | 2.6 | 6.1 | 0.00 | 0.08 | 0.11 | 61 | 1010.4 |
| 20260507233642 | 53 | 315 | 1.7 | 5.2 | 0.00 | 0.08 | 0.11 | 59 | 1010.1 |
| 20260507233132 | 53 | 225 | 2.6 | 5.2 | 0.00 | 0.08 | 0.11 | 58 | 1010.3 |
| 20260507232623 | 53 | 248 | 2.6 | 5.2 | 0.00 | 0.08 | 0.11 | 59 | 1010.4 |
| 20260507232110 | 53 | 248 | 1.7 | 5.2 | 0.00 | 0.08 | 0.11 | 60 | 1010.3 |
| 20260507231601 | 53 | 293 | 2.6 | 5.2 | 0.00 | 0.08 | 0.11 | 59 | 1010.3 |
| 20260507231053 | 53 | 248 | 1.7 | 6.1 | 0.00 | 0.08 | 0.11 | 59 | 1010.3 |
| 20260507230540 | 55 | 45 | 1.7 | 7.8 | 0.00 | 0.08 | 0.11 | 58 | 1010.2 |
| 20260507230032 | 55 | 248 | 1.7 | 7.8 | 0.00 | 0.08 | 0.11 | 54 | 1010.2 |
| 20260507225521 | 55 | 225 | 2.6 | 7.0 | 0.00 | 0.08 | 0.11 | 56 | 1010.2 |
| 20260507225012 | 55 | 338 | 2.6 | 7.8 | 0.00 | 0.08 | 0.11 | 55 | 1010.1 |
| 20260507223950 | 56 | 90 | 1.7 | 5.2 | 0.00 | 0.08 | 0.11 | 56 | 1010.1 |
| 20260507223440 | 56 | 203 | 1.7 | 7.0 | 0.00 | 0.08 | 0.11 | 54 | 1010.0 |
| 20260507222930 | 56 | 248 | 2.6 | 7.0 | 0.00 | 0.08 | 0.11 | 52 | 1009.6 |
| 20260507222421 | 57 | 248 | 4.3 | 7.0 | 0.00 | 0.08 | 0.11 | 52 | 1009.6 |
| 20260507221911 | 57 | 225 | 3.5 | 7.0 | 0.00 | 0.08 | 0.11 | 52 | 1009.4 |
| 20260507220849 | 58 | 225 | 2.6 | 7.8 | 0.00 | 0.08 | 0.11 | 50 | 1009.2 |